Flag for Argentina Weather past 2 weeks in Buenos Aires, Argentina

Now
70 °F

Light rain. More clouds than sun.


Feels Like: 70 °F
Forecast: 65 / 74 °F
Wind: 12 mph from Southeast

Location: Buenos Aires Airport

Current Time: Dec 20, 2014 at 10:54:04 AM

Latest Report: Dec 20, 2014 at 10:00 AM


Visibility: 5 mi

Pressure: 29.65 "Hg

Humidity: 83%

Dew point: 64 °F

Location of Buenos AiresLocation

Historic Weather in Buenos Aires — Graph

°F

Buenos Aires temperature yesterday

Maximum temperature yesterday: 90 °F (at 3:00 PM)
Minimum temperature yesterday: 73 °F (at 5:00 AM)
Average temperature yesterday: 82 °F

Past Weeks' High & Low Weather Summary

 TemperatureHumidityPressure
High90 °F (Dec 19, 3:00 PM)94% (Dec 7, 4:00 PM)30.12 "Hg (Dec 7, 4:00 PM)
Low61 °F (Dec 11, 5:00 AM)29% (Dec 19, 5:00 PM)29.53 "Hg (Dec 9, 6:00 PM)
Average74 °F68%29.87 "Hg
* Reported Dec 5 9:00 AM — Dec 20 9:00 AM, Buenos Aires, Weather by CustomWeather, © 2014

Note: Actual official high and low records may vary slightly from our data, if they occured in-between our weather recording intervals... More about our weather records

Advertising

Buenos Aires weather history for previous 24 hours

 ConditionsComfort  
Time TempWeatherWind HumidityBarometerVisibility
9:00 AM
Dec 20
70 °FLight rain. Broken clouds.12 mph83%29.62 "HgN/A
8:00 AM68 °FThunderstorms. Overcast.15 mph88%29.68 "Hg2 mi
7:00 AM72 °FMore clouds than sun.18 mph69%29.62 "HgN/A
6:00 AM77 °FBroken clouds.17 mph57%29.59 "HgN/A
5:00 AM79 °FSunny.15 mph61%29.53 "Hg10 mi
4:00 AM77 °FClear.15 mph65%29.53 "Hg10 mi
3:00 AM75 °FClear.15 mph69%29.53 "Hg10 mi
2:00 AM77 °FClear.15 mph65%29.53 "Hg10 mi
1:00 AM79 °FClear.15 mph61%29.53 "Hg10 mi
12:00 AM79 °FClear.13 mph70%29.56 "Hg10 mi
11:00 PM
Dec 19
81 °FClear.9 mph66%29.56 "Hg10 mi
10:00 PM82 °FClear.9 mph74%29.53 "Hg10 mi
9:00 PM82 °FClear.7 mph70%29.53 "Hg10 mi
8:00 PM84 °FClear.8 mph62%29.53 "Hg10 mi
7:00 PM86 °FSunny.14 mph55%29.53 "Hg10 mi
6:00 PM88 °FSunny.13 mph35%29.53 "Hg10 mi
5:00 PM90 °FSunny.13 mph29%29.53 "Hg10 mi
4:00 PM90 °FSunny.13 mph63%29.56 "Hg10 mi
3:00 PM90 °FSunny.12 mph38%29.59 "Hg10 mi
2:00 PM88 °FPassing clouds.16 mph38%29.62 "HgN/A
1:00 PM88 °FSunny.15 mph43%29.65 "Hg10 mi
12:00 PM86 °FSunny.18 mph46%29.65 "Hg10 mi
11:00 AM86 °FSunny.18 mph46%29.68 "Hg10 mi
10:00 AM84 °FSunny.17 mph51%29.71 "Hg10 mi
Weather by CustomWeather, © 2014

See weather overviewHow to use our weather pages